Hourly Weather Holohory

Today, 13 April, Tuesday

Time Temperature Precipitation Wind Pressure Humidity
00:00 +12°C° 0 mm 2 mps 733 mmHg 66%
01:00 +12°C° 0 mm 2 mps 733 mmHg 65%
02:00 +12°C° 0 mm 2 mps 733 mmHg 65%
03:00 +12°C° 0 mm 2 mps 733 mmHg 66%
04:00 +10°C° 0 mm 2 mps 733 mmHg 66%
05:00 +10°C° 0 mm 2 mps 733 mmHg 67%
06:00 +10°C° 0 mm 2 mps 733 mmHg 72%
07:00 +10°C° 0 mm 2 mps 733 mmHg 78%
08:00 +9°C° 0 mm 3 mps 734 mmHg 86%
09:00 +9°C° 0 mm 3 mps 734 mmHg 86%
10:00 +8°C° 0 mm 4 mps 734 mmHg 85%
11:00 +7°C° 0 mm 5 mps 734 mmHg 85%
12:00 +7°C° 0 mm 5 mps 734 mmHg 84%
13:00 +7°C° 0 mm 5 mps 734 mmHg 82%
14:00 +7°C° 0 mm 5 mps 734 mmHg 79%
15:00 +7°C° 0 mm 5 mps 734 mmHg 80%
16:00 +6°C° 0 mm 5 mps 734 mmHg 81%
17:00 +5°C° 0 mm 4 mps 734 mmHg 82%
18:00 +5°C° 0 mm 4 mps 733 mmHg 84%
19:00 +4°C° 0 mm 4 mps 733 mmHg 85%
20:00 +3°C° 0 mm 4 mps 733 mmHg 87%
21:00 +3°C° 0 mm 4 mps 733 mmHg 88%
22:00 +3°C° 0 mm 4 mps 733 mmHg 89%
23:00 +3°C° 0 mm 3 mps 732 mmHg 90%

Tomorrow, 14 April, Wednesday

Time Temperature Precipitation Wind Pressure Humidity
00:00 +3°C° 0 mm 3 mps 732 mmHg 90%
01:00 +3°C° 0 mm 3 mps 732 mmHg 90%
02:00 +3°C° 0 mm 3 mps 731 mmHg 91%
03:00 +4°C° 0.2 mm 2 mps 731 mmHg 92%
04:00 +4°C° 0.2 mm 2 mps 731 mmHg 93%
05:00 +4°C° 0.2 mm 2 mps 730 mmHg 94%
06:00 +2°C° 0.6 mm 3 mps 730 mmHg 94%
07:00 +2°C° 0.6 mm 3 mps 730 mmHg 95%
08:00 +2°C° 0.6 mm 3 mps 730 mmHg 96%
09:00 +2°C° 0.7 mm 3 mps 730 mmHg 96%
10:00 +2°C° 0.7 mm 3 mps 730 mmHg 96%
11:00 0°C° 0.7 mm 4 mps 730 mmHg 97%
12:00 0°C° 0.9 mm 4 mps 730 mmHg 97%
13:00 0°C° 0.9 mm 4 mps 730 mmHg 98%
14:00 -1°C° 0.9 mm 4 mps 730 mmHg 98%
15:00 -1°C° 0.7 mm 4 mps 731 mmHg 99%
16:00 -1°C° 0.7 mm 4 mps 731 mmHg 99%
17:00 -1°C° 0.7 mm 4 mps 731 mmHg 99%
18:00 -1°C° 0.2 mm 4 mps 731 mmHg 98%
19:00 -2°C° 0.2 mm 4 mps 731 mmHg 98%
20:00 -2°C° 0.2 mm 4 mps 731 mmHg 98%
21:00 -2°C° 0 mm 4 mps 731 mmHg 98%
22:00 -2°C° 0 mm 4 mps 731 mmHg 98%
23:00 -2°C° 0 mm 4 mps 731 mmHg 98%

Day after tomorrow, 15 April, Thursday

Time Temperature Precipitation Wind Pressure Humidity
00:00 -2°C° 0.1 mm 4 mps 731 mmHg 98%
01:00 -2°C° 0.1 mm 4 mps 731 mmHg 98%
02:00 -2°C° 0.1 mm 4 mps 731 mmHg 98%
03:00 -2°C° 0.3 mm 4 mps 731 mmHg 98%
04:00 -2°C° 0.3 mm 4 mps 731 mmHg 98%
05:00 -2°C° 0.3 mm 4 mps 731 mmHg 98%
06:00 -2°C° 0.5 mm 4 mps 731 mmHg 99%
07:00 -1°C° 0.5 mm 3 mps 731 mmHg 99%
08:00 -1°C° 0.5 mm 3 mps 731 mmHg 99%
09:00 -1°C° 0.3 mm 3 mps 731 mmHg 99%
10:00 -2°C° 0.3 mm 4 mps 731 mmHg 99%
11:00 -1°C° 0.3 mm 4 mps 731 mmHg 99%
12:00 -1°C° 0 mm 4 mps 732 mmHg 98%
13:00 -1°C° 0 mm 4 mps 732 mmHg 98%
14:00 0°C° 0 mm 5 mps 733 mmHg 98%
15:00 0°C° 0.1 mm 5 mps 733 mmHg 97%
16:00 -1°C° 0.1 mm 5 mps 733 mmHg 97%
17:00 -1°C° 0.1 mm 5 mps 733 mmHg 97%
18:00 -1°C° 0.4 mm 5 mps 733 mmHg 97%
19:00 -1°C° 0.4 mm 5 mps 733 mmHg 97%
20:00 -1°C° 0.4 mm 5 mps 733 mmHg 98%
21:00 -1°C° 0.4 mm 5 mps 733 mmHg 98%
22:00 -2°C° 0.4 mm 5 mps 733 mmHg 98%
23:00 -2°C° 0.4 mm 5 mps 733 mmHg 98%

16 April, Friday

Time Temperature Precipitation Wind Pressure Humidity
00:00 -3°C° 0.2 mm 6 mps 732 mmHg 98%
01:00 -3°C° 0.2 mm 6 mps 732 mmHg 98%
02:00 -3°C° 0.2 mm 6 mps 732 mmHg 98%
03:00 -3°C° 0.4 mm 6 mps 732 mmHg 98%
04:00 -3°C° 0.4 mm 6 mps 731 mmHg 98%
05:00 -3°C° 0.4 mm 7 mps 731 mmHg 98%
06:00 -3°C° 1.5 mm 7 mps 731 mmHg 98%
07:00 -3°C° 1.5 mm 7 mps 731 mmHg 98%
08:00 -3°C° 1.5 mm 7 mps 731 mmHg 98%
09:00 -3°C° 1 mm 7 mps 731 mmHg 98%
10:00 -3°C° 1 mm 7 mps 731 mmHg 99%
11:00 -3°C° 1 mm 7 mps 731 mmHg 99%
12:00 -3°C° 0.6 mm 7 mps 731 mmHg 99%
13:00 -3°C° 0.6 mm 7 mps 732 mmHg 99%
14:00 -3°C° 0.6 mm 7 mps 732 mmHg 99%
15:00 -3°C° 0.6 mm 7 mps 732 mmHg 99%
16:00 -3°C° 0.6 mm 6 mps 732 mmHg 99%
17:00 -3°C° 0.6 mm 6 mps 732 mmHg 99%
18:00 -3°C° 0.6 mm 6 mps 733 mmHg 99%
19:00 -3°C° 0.6 mm 6 mps 733 mmHg 99%
20:00 -3°C° 0.6 mm 6 mps 733 mmHg 99%
21:00 -3°C° 0.1 mm 6 mps 733 mmHg 99%
22:00 -2°C° 0.1 mm 5 mps 733 mmHg 99%
23:00 -2°C° 0.1 mm 5 mps 733 mmHg 99%

17 April, Saturday

Time Temperature Precipitation Wind Pressure Humidity
00:00 -1°C° 0.1 mm 5 mps 733 mmHg 99%
01:00 -1°C° 0.1 mm 5 mps 733 mmHg 99%
02:00 -1°C° 0.1 mm 5 mps 733 mmHg 99%
03:00 -1°C° 0.2 mm 5 mps 733 mmHg 99%
04:00 -1°C° 0.2 mm 5 mps 733 mmHg 99%
05:00 -1°C° 0.2 mm 4 mps 733 mmHg 99%
06:00 -1°C° 0.2 mm 4 mps 733 mmHg 99%
07:00 -1°C° 0.2 mm 4 mps 734 mmHg 99%
08:00 0°C° 0.2 mm 3 mps 734 mmHg 99%
09:00 0°C° 0.1 mm 3 mps 734 mmHg 99%
10:00 +1°C° 0.1 mm 2 mps 734 mmHg 99%
11:00 +2°C° 0.1 mm 2 mps 734 mmHg 99%
12:00 +2°C° 0 mm 2 mps 734 mmHg 99%
13:00 +4°C° 0 mm 1 mps 734 mmHg 99%
14:00 +4°C° 0 mm 1 mps 734 mmHg 98%
15:00 +4°C° 0 mm 1 mps 734 mmHg 98%
16:00 +4°C° 0 mm 1 mps 734 mmHg 98%
17:00 +4°C° 0 mm 1 mps 734 mmHg 98%
18:00 +4°C° 0 mm 1 mps 734 mmHg 98%
19:00 +3°C° 0 mm 1 mps 734 mmHg 99%
20:00 +3°C° 0 mm 1 mps 734 mmHg 99%
21:00 +3°C° 0 mm 1 mps 734 mmHg 99%
22:00 +3°C° 0 mm 1 mps 734 mmHg 99%
23:00 +3°C° 0 mm 1 mps 734 mmHg 98%

18 April, Sunday

Time Temperature Precipitation Wind Pressure Humidity
00:00 +3°C° 0 mm 1 mps 734 mmHg 99%
01:00 +3°C° 0 mm 1 mps 734 mmHg 99%
02:00 +3°C° 0 mm 1 mps 734 mmHg 99%
03:00 +2°C° 0 mm 2 mps 734 mmHg 99%
04:00 +2°C° 0 mm 2 mps 734 mmHg 99%
05:00 +2°C° 0 mm 2 mps 734 mmHg 99%
06:00 +2°C° 0 mm 3 mps 734 mmHg 97%
07:00 +3°C° 0 mm 3 mps 734 mmHg 96%
08:00 +3°C° 0 mm 4 mps 734 mmHg 95%
09:00 +5°C° 0 mm 5 mps 734 mmHg 89%
10:00 +6°C° 0 mm 5 mps 734 mmHg 82%
11:00 +8°C° 0 mm 6 mps 734 mmHg 76%
12:00 +8°C° 0.1 mm 6 mps 734 mmHg 74%
13:00 +9°C° 0.1 mm 6 mps 734 mmHg 71%
14:00 +9°C° 0.1 mm 6 mps 734 mmHg 69%
15:00 +8°C° 0.1 mm 6 mps 734 mmHg 73%
16:00 +7°C° 0.1 mm 5 mps 734 mmHg 78%
17:00 +7°C° 0.1 mm 5 mps 734 mmHg 82%
18:00 +6°C° 0.6 mm 4 mps 734 mmHg 86%
19:00 +6°C° 0.6 mm 4 mps 734 mmHg 90%
20:00 +5°C° 0.6 mm 3 mps 734 mmHg 94%
21:00 +5°C° 0.6 mm 4 mps 734 mmHg 94%
22:00 +5°C° 0.6 mm 4 mps 734 mmHg 93%
23:00 +5°C° 0.6 mm 4 mps 734 mmHg 93%
Show more